NEMO-HD

Last updated on Mon Jun 22 2026 00:02:52 GMT+0000 (Coordinated Universal Time)

1 46277U 20061F 26172.47021808 .00008740 00000+0 18934-3 0 9999 2 46277 97.1916 234.3801 0002107 78.3538 281.7948 15.44668071322644
UTC large
Height (km)
Speed (km/s)
/
Latitude / Longitude
Inclination (degrees)
Orbital Period (minutes)
Azimuth
Elevation
Range (km)
Doppler Factor

Next 0 passes for location: London (51.5072 / 0.1276)

No passes found over London.
NEMO-HD